Home > Weather > Braga > Past weeks

Flag for Portugal Past Weather in Braga, Portugal — Yesterday and Last 2 Weeks

Now
78 °F

Warm.


Feels Like: 80 °F
Forecast: 59 / 87 °F
Wind: 2 mph from West

Location: Porto / Pedras Rubras

Current Time: Aug 24, 2016 at 2:57:27 PM

Latest Report: Aug 24, 2016 at 2:00 PM


Visibility: N/A

Pressure: 29.99 "Hg

Humidity: 56%

Dew Point: 61 °F

Location of BragaLocation

Past Weather in Braga — Graph

°F

Braga Temperature Yesterday

Maximum temperature yesterday: 74 °F (at 3:00 PM)
Minimum temperature yesterday: 59 °F (at 5:00 AM)
Average temperature yesterday: 65 °F

High & Low Weather Summary for the Past Weeks

 TemperatureHumidityPressure
High88 °F (Aug 10, 4:00 PM)94% (Aug 23, 5:00 AM)30.19 "Hg (Aug 23, 5:00 AM)
Low55 °F (Aug 14, 7:00 AM)17% (Aug 10, 4:00 PM)29.91 "Hg (Aug 19, 6:00 AM)
Average68 °F64%30.07 "Hg
* Reported Aug 9 1:00 PM — Aug 24 1:00 PM, Braga, Weather by CustomWeather, © 2016

Note: Actual official high and low records may vary slightly from our data, if they occured in-between our weather recording intervals... More about our weather records

Advertising

Braga Weather History for the Previous 24 Hours

Scroll right to see more
 ConditionsComfort  
Time TempWeatherWind HumidityBarometerVisibility
1:00 PM
Wed, Aug 24
75 °FMild.3 mph61%29.99 "HgN/A
12:00 PM72 °FMild.5 mph70%30.00 "HgN/A
11:00 AM70 °FMild.2 mph77%30.00 "HgN/A
10:00 AM67 °FMild.3 mph83%29.98 "HgN/A
8:00 AM62 °FCool.3 mph89%30.06 "HgN/A
7:00 AM62 °FCool.2 mph89%30.03 "HgN/A
6:00 AM62 °FCool.3 mph90%30.02 "HgN/A
5:00 AM62 °FCool.3 mph88%30.01 "HgN/A
4:00 AM65 °FMild.1 mph84%30.00 "HgN/A
3:00 AM63 °FMild.2 mph89%30.02 "HgN/A
2:00 AM62 °FMild.2 mph87%30.04 "HgN/A
1:00 AM63 °FMild.1 mph90%30.05 "HgN/A
12:00 AM62 °FCool.2 mph90%30.06 "HgN/A
11:00 PM
Tue, Aug 23
63 °FMild.No wind90%30.06 "HgN/A
10:00 PM64 °FMild.3 mph89%30.07 "HgN/A
9:00 PM64 °FMild.3 mph88%30.07 "HgN/A
8:00 PM63 °FMild.6 mph87%30.07 "HgN/A
7:00 PM64 °FMild.6 mph84%30.07 "HgN/A
6:00 PM67 °FMild.7 mph75%30.07 "HgN/A
5:00 PM69 °FMild.6 mph71%30.08 "HgN/A
4:00 PM71 °FMild.6 mph64%30.09 "HgN/A
3:00 PM74 °FMild.5 mph61%30.10 "HgN/A
Weather by CustomWeather, © 2016

See weather overviewHow to use our weather pages